Change the Weather History Date:

Thursday, February 24, 2011

  Actual Average Record
Temperature  
Mean Temperature 28 °F 30 °F  
Max Temperature 30 °F 40 °F 78 °F (1930)
Min Temperature 26 °F 21 °F -4 °F (1993)
Degree Days  
Heating Degree Days 37 35  
Month to date heating degree days 927  
Since 1 July heating degree days 4749  
Cooling Degree Days 0 0  
Month to date cooling degree days 0  
Year to date cooling degree days 0  
Moisture  
Dew Point 27 °F    
Average Humidity 92    
Maximum Humidity 100    
Minimum Humidity 85    
Precipitation  
Precipitation 0.03 in 0.06 in 1.93 in (2007)
Month to date precipitation 1.02  
Year to date precipitation 1.92  
Sea Level Pressure  
Sea Level Pressure 30.02 in    
Wind  
Wind Speed 13 mph (North)    
Max Wind Speed 23 mph    
Max Gust Speed 26 mph    
Visibility 3 miles    
Events Fog , Snow    
T = Trace of Precipitation, MM = Missing Value Source: NWS Daily Summary

Daily Weather History Graph

Daily Weather History Graph

Search for Another Location

Airport or City:

Trip Planner

Search our weather history database for the weather conditions in past years. The results will help you decide how hot, cold, wet, or windy it might be!

Date:

Astronomy

Feb. 24, 2011 Rise Set
Actual Time 6:52 AM CST 5:54 PM CST
Civil Twilight 6:24 AM CST 6:22 PM CST
Nautical Twilight 5:52 AM CST 6:54 PM CST
Astronomical Twilight 5:20 AM CST 7:26 PM CST
Moon 12:53 AM CST (2/24) 10:22 AM CST (2/24)
Length of Visible Light 11h 58m
Length of Day
11h 02m
Waning Gibbous, 53% of the Moon is Illuminated
Feb 24
Waning Gibbous
Feb 24
Last Quarter
Mar 4
New
Mar 12
First Quarter
Mar 19
Full

Hourly Weather History & Observations

Time (CST) Temp. Windchill Dew Point Humidity Pressure Visibility Wind Dir Wind Speed Gust Speed Precip Events Conditions
12:53 AM 26.1 °F 17.6 °F 25.0 °F 96% 30.09 in 4.0 mi North 8.1 mph - N/A   Clear
1:53 AM 28.0 °F 19.3 °F 26.1 °F 92% 30.09 in 5.0 mi North 9.2 mph - N/A   Clear
2:15 AM 30.2 °F 25.4 °F 28.4 °F 93% 30.07 in 6.0 mi NNW 4.6 mph - N/A   Mostly Cloudy
2:53 AM 30.2 °F 21.3 °F 30.2 °F 100% 30.07 in 5.0 mi North 10.4 mph - N/A   Overcast
3:53 AM 30.9 °F 20.2 °F 28.0 °F 89% 30.10 in 5.0 mi NNW 15.0 mph - N/A   Overcast
4:11 AM 30.2 °F 19.8 °F 28.4 °F 93% 30.08 in 6.0 mi North 13.8 mph - N/A   Overcast
4:53 AM 28.0 °F 19.3 °F 26.1 °F 92% 30.12 in 7.0 mi North 9.2 mph - N/A   Overcast
5:53 AM 28.4 °F 19.1 °F 26.6 °F 93% 30.07 in 7.0 mi North 10.4 mph - N/A   Overcast
6:53 AM 28.9 °F 19.8 °F 26.1 °F 89% 30.11 in 6.0 mi North 10.4 mph - N/A   Overcast
7:40 AM 28.4 °F 19.7 °F 26.6 °F 93% 30.08 in 5.0 mi NNE 9.2 mph - N/A   Overcast
7:53 AM 28.9 °F 21.9 °F 26.1 °F 89% 30.12 in 5.0 mi NNE 6.9 mph - N/A   Overcast
8:53 AM 28.9 °F 19.8 °F 26.1 °F 89% 30.11 in 6.0 mi NNE 10.4 mph - N/A   Overcast
9:53 AM 30.0 °F 20.5 °F 26.1 °F 85% 30.12 in 6.0 mi NNE 11.5 mph - N/A   Overcast
10:53 AM 30.0 °F 20.0 °F 26.1 °F 85% 30.13 in 5.0 mi North 12.7 mph - N/A   Overcast
11:49 AM 28.4 °F 18.0 °F 26.6 °F 93% 30.09 in 4.0 mi North 12.7 mph - N/A   Overcast
11:53 AM 28.9 °F 18.2 °F 26.1 °F 89% 30.12 in 4.0 mi North 13.8 mph - N/A   Overcast
12:53 PM 28.9 °F 18.2 °F 25.0 °F 85% 30.08 in 4.0 mi North 13.8 mph - N/A   Overcast
1:53 PM 28.9 °F 20.4 °F 26.1 °F 89% 30.06 in 4.0 mi North 9.2 mph - N/A   Overcast
2:11 PM 28.4 °F 18.5 °F 24.8 °F 86% 30.02 in 4.0 mi NNE 11.5 mph - N/A   Overcast
2:53 PM 28.9 °F 19.2 °F 26.1 °F 89% 30.04 in 4.0 mi North 11.5 mph - N/A   Overcast
3:35 PM 28.4 °F 18.0 °F 26.6 °F 93% 30.02 in 3.0 mi North 12.7 mph - N/A   Overcast
3:44 PM 28.4 °F 17.5 °F 26.6 °F 93% 30.00 in 3.0 mi North 13.8 mph - N/A   Overcast
3:53 PM 28.9 °F 18.2 °F 26.1 °F 89% 30.02 in 2.5 mi North 13.8 mph - 0.00 in Snow Light Snow
3:58 PM 28.4 °F 17.5 °F 26.6 °F 93% 29.99 in 1.8 mi North 13.8 mph - 0.00 in Snow Light Snow
4:11 PM 28.4 °F 17.0 °F 26.6 °F 93% 30.00 in 0.8 mi North 15.0 mph - 0.00 in Snow Light Snow
4:46 PM 28.4 °F 18.0 °F 26.6 °F 93% 29.97 in 0.5 mi North 12.7 mph 21.9 mph 0.01 in Fog , Snow Snow
4:53 PM 28.0 °F 16.5 °F 27.0 °F 96% 29.99 in 0.5 mi North 15.0 mph - 0.01 in Fog , Snow Snow
5:21 PM 28.4 °F 16.2 °F 26.6 °F 93% 29.94 in 0.8 mi North 17.3 mph 24.2 mph 0.00 in Snow Light Snow
5:53 PM 28.0 °F 15.3 °F 27.0 °F 96% 29.96 in 0.8 mi North 18.4 mph - 0.00 in Snow Light Snow
6:02 PM 28.4 °F 15.4 °F 26.6 °F 93% 29.91 in 1.5 mi North 19.6 mph 25.3 mph 0.00 in Snow Light Snow
6:26 PM 28.4 °F 15.8 °F 26.6 °F 93% 29.92 in 2.0 mi North 18.4 mph - 0.00 in Snow Light Snow
6:43 PM 28.4 °F 15.1 °F 26.6 °F 93% 29.93 in 1.5 mi North 20.7 mph - 0.00 in Snow Light Snow
6:50 PM 28.4 °F 15.1 °F 26.6 °F 93% 29.93 in 1.8 mi North 20.7 mph - 0.00 in Snow Light Snow
6:53 PM 28.9 °F 16.1 °F 27.0 °F 92% 29.96 in 1.8 mi North 19.6 mph - 0.00 in Snow Light Snow
6:59 PM 28.4 °F 15.4 °F 26.6 °F 93% 29.94 in 2.0 mi North 19.6 mph - 0.00 in Snow Light Snow
7:13 PM 28.4 °F 14.4 °F 26.6 °F 93% 29.95 in 1.8 mi North 23.0 mph - 0.00 in Snow Light Snow
7:25 PM 28.4 °F 14.7 °F 26.6 °F 93% 29.96 in 0.8 mi North 21.9 mph - 0.00 in Snow Light Snow
7:53 PM 28.9 °F 16.9 °F 27.0 °F 92% 29.99 in 0.5 mi North 17.3 mph 26.5 mph 0.01 in Fog , Snow Snow
8:09 PM 28.4 °F 16.2 °F 26.6 °F 93% 29.95 in 1.0 mi North 17.3 mph 23.0 mph 0.00 in Snow Light Snow
8:53 PM 28.9 °F 16.5 °F 27.0 °F 92% 30.00 in 0.8 mi North 18.4 mph - 0.00 in Snow Light Snow
9:00 PM 28.4 °F 17.0 °F 28.4 °F 100% 29.97 in 0.5 mi North 15.0 mph - 0.00 in Fog , Snow Snow
9:43 PM 28.4 °F 15.4 °F 26.6 °F 93% 29.98 in 1.0 mi North 19.6 mph - 0.01 in Snow Light Snow
9:51 PM 28.4 °F 15.8 °F 26.6 °F 93% 29.98 in 1.2 mi North 18.4 mph - 0.01 in Snow Light Snow
9:53 PM 28.9 °F 16.5 °F 27.0 °F 92% 30.02 in 1.5 mi North 18.4 mph - 0.01 in Snow Light Snow
10:14 PM 28.4 °F 15.1 °F 26.6 °F 93% 29.98 in 1.8 mi North 20.7 mph - 0.00 in Snow Light Snow
10:28 PM 28.4 °F 15.1 °F 26.6 °F 93% 29.99 in 2.0 mi North 20.7 mph - 0.00 in Snow Light Snow
10:37 PM 28.4 °F 15.1 °F 26.6 °F 93% 29.99 in 1.5 mi North 20.7 mph - 0.00 in Snow Light Snow
10:53 PM 28.0 °F 14.9 °F 26.1 °F 92% 30.03 in 1.2 mi North 19.6 mph - 0.00 in Snow Light Snow
11:49 PM 28.4 °F 15.1 °F 26.6 °F 93% 30.01 in 2.0 mi North 20.7 mph - 0.00 in Snow Light Snow
11:53 PM 28.0 °F 14.3 °F 26.1 °F 92% 30.05 in 2.0 mi North 21.9 mph - 0.00 in Snow Light Snow